www.pogodaiklimat.ru

ПОГОДА в Небраска-Сити, NE

  • Прогноз погоды в Небраска-Сити
  • Монитор погоды в Небраска-Сити
  • Климат в Небраска-Сити

АРХИВ ПОГОДЫ в Небраска-Сити

Время (UTC), дата Ветер
(напр.,м/с)
 
Видим.   Явления Облачность Т
(С)
Тd
(С)
f
(%)
Тe
(С)
Тes
(С)
Комфортность

P
(гПа)

Po
(гПа)
Тmin
(С)
Tmax
(С)
R
(мм)
SD
(см)
04:35 25.06 Ю  16 км    ясно  +20.0  +13.3  65  +22  +22  комфорт    968.0         
04:55 25.06 Ю  16 км    ясно  +19.7  +13.4  67  +21  +21  комфорт    968.0  +19.6  +25.7     
05:15 25.06 Ю  16 км    ясно  +19.5  +13.3  67  +21  +21  комфорт    968.0         
05:35 25.06 Ю  16 км    ясно  +19.3  +13.5  69  +20  +20      967.7         
05:55 25.06 Ю  16 км    ясно  +18.6  +14.6  78  +19  +19      967.7         
06:15 25.06 Ю  16 км    ясно  +18.5  +15.2  81  +19  +19      967.7         
06:35 25.06 Ю  16 км    ясно  +18.5  +15.5  83  +19  +19      967.7         
06:55 25.06 Ю  16 км    ясно  +18.2  +15.5  84  +18  +18      967.7         
07:15 25.06 Ю  16 км    5/0 3600 м
[средняя] 
+18.5  +15.5  83  +19  +19      967.4         
07:35 25.06 Ю  16 км    ясно  +18.3  +15.5  84  +18  +18      967.4         
07:55 25.06 Ю  16 км    ясно  +18.3  +15.6  84  +18  +18      967.4         
08:15 25.06 ЮЗ  16 км    ясно  +18.0  +15.7  86  +18  +18      967.7         
08:35 25.06 ЮЗ  16 км    ясно  +18.3  +15.8  85  +19  +19      967.7         
08:55 25.06 ЮЗ  16 км    5/0 3600 м
[средняя] 
+18.5  +15.8  84  +19  +19      968.7         
09:15 25.06 ЮЗ  16 км    5/0 3600 м
[средняя] 
+19.1  +15.1  78  +20  +20      969.0         
09:35 25.06 З  16 км    ясно  +19.0  +15.1  78  +20  +20      969.3         
09:55 25.06 З  5
{7} 
16 км    ясно  +19.3  +15.0  76  +20  +20      969.3         
10:15 25.06 З  16 км    ясно  +19.0  +15.2  79  +20  +20      969.6         
10:35 25.06 З  16 км    ясно  +18.5  +15.5  83  +19  +19      969.6         
10:55 25.06 З  16 км    ясно  +18.6  +16.0  85  +20  +20      969.6  +18.0  +19.7     
11:15 25.06 ЮЗ  16 км    ясно  +19.2  +16.2  83  +22  +22  комфорт    969.3         
11:35 25.06 ЮЗ  16 км    ясно  +20.1  +16.5  80  +24  +24  комфорт    969.6         
11:55 25.06 ЮЗ  16 км    ясно  +20.5  +16.8  79  +24  +25  комфорт    969.6         
12:15 25.06 СЗ  16 км    ясно  +21.1  +16.2  74  +24  +28  комфорт    970.3         
12:35 25.06   16 км    ясно  +21.5  +16.3  72  +25  +29  комфорт    970.3         
12:55 25.06   16 км    ясно  +21.6  +16.0  70  +25  +29  комфорт    970.3         
13:15 25.06   16 км    ясно  +22.3  +16.5  70  +27  +36  душно    970.6         
13:35 25.06   16 км    ясно  +22.9  +16.5  67  +28  +36  душно    970.6         
13:55 25.06 Ю  16 км    ясно  +23.3  +16.8  67  +28  +33  душно    970.3         
14:15 25.06 ЮЗ  16 км    ясно  +23.8  +17.8  69  +28  +35  душно    970.6         
14:35 25.06 ЮЗ  16 км    ясно  +24.4  +17.5  65  +28  +37  душно    970.9         
14:55 25.06 ЮЗ  16 км    ясно  +25.0  +18.0  65  +29  +36  душно    970.9         
15:15 25.06 ЮЗ  16 км    ясно  +25.6  +18.0  63  +30  +46  душно    971.3         
15:35 25.06 ЮЗ  16 км    ясно  +26.0  +17.5  59  +30  +42  душно    971.3         
15:55 25.06 ЮЗ  16 км    ясно  +26.8  +17.8  58  +31  +45  душно    971.6         
16:15 25.06 ЮЗ  16 км    ясно  +27.0  +17.2  55  +31  +45  душно    971.6         
16:35 25.06 З  16 км    ясно  +27.6  +16.6  51  +31  +46  душно    971.6         
16:55 25.06 З  16 км    ясно  +27.7  +14.7  45  +30  +50  жарко    971.6  +18.6  +27.7     
17:15 25.06   16 км    ясно  +28.1  +14.7  44  +31  +58  опасность
солнечного
удара 
  971.3         
17:35 25.06   16 км    ясно  +28.4  +12.9  38  +30  +57  опасность
солнечного
удара 
  971.3         
17:55 25.06 Ю  16 км    ясно  +29.0  +15.6  44  +32  +50  душно    971.3         
18:15 25.06   16 км    ясно  +29.1  +16.2  46  +32  +59  опасность
солнечного
удара 
  971.3         
18:35 25.06   16 км    5/5 1410 м  +29.0  +16.9  48  +33  +46  очень
душно 
  970.9         
18:55 25.06 ЮЗ  16 км    5/5 1410 м  +29.6  +16.0  44  +33  +41  душно    970.6         
19:15 25.06 З  16 км    ясно  +30.1  +16.3  43  +33  +52  опасность
солнечного
удара 
  970.6         
19:35 25.06 ЮЗ  16 км    5/5 1800 м  +29.8  +16.5  45  +33  +41  душно    970.6         
19:55 25.06 ЮЗ  16 км    8/8 1800 м  +30.2  +16.6  44  +34  +36  очень
душно 
  970.6         
20:15 25.06 З  16 км  гроза  5/5 1800 м  +30.3  +16.6  44  +34  +36  очень
душно 
  970.9         

 

Местоположение метеостанции Nebraska City Municipal Airport: широта 40.6000 долгота -95.8500 высота над уровнем моря 354 м.

В архиве по умолчанию представлена погода в Небраска-Сити за последние 1-2 суток. Обновление информации о фактической погоде в базе происходит ежечасно! Архивные данные за месяц целиком и за предыдущие месяцы Вы можете получить, выбрав интересующий диапазон дат из раскрывающегося списка и нажав кнопку "Ввод!".

Внимание! Архив погоды МЕТАР в базе сайта хранится не более 60 дней. Нет смысла пытаться выбрать более раннюю дату.

Внимание! Время в таблицах - всемирное. Для получения местного времени необходимо прибавить поправку, которая в Небраска-Сити равна -6 ч.

Ветер - указаны скорость ветра в м/с и направление, откуда дует ветер: С - северный, СВ - северо-восточный, В - восточный, ЮВ - юго-восточный, Ю - южный, ЮЗ - юго-западный, З - западный, СЗ - северо-западный.
Видимость - горизонтальная дальность видимости в метрах или километрах. При видимости от 1 до 10 км при отсутствии осадков обычно наблюдается дымка, при ухудшении видимости до 1 км и менее - туман. В сухую погоду видимость может ухудшаться дымом, пылью или мглою.
Атмосферные явления - указаны явления, наблюдавшиеся в указанный момент времени.
Облачность - указаны через наклонную черту верхняя и нижняя облачность в баллах и высота нижней границы облаков в метрах. Внимание: облачность, как и прочие метеорологические величины в США измеряются автоматическими метеостанциями. Указанные значения в баллах носят условный характер и показывают процент времени, в течение которого, в среднем, лазерный луч высотомера отражался от облаков обратно.
T - Температура воздуха - температура, измеренная на высоте 2 м над землей.
Td - Температура точки росы - температура, при понижении до которой содержащийся в воздухе водяной пар достигнет насыщения.
f - Относительная влажность воздуха - влажноcть воздуха, измеренная на высоте 2 м над землей.
Te - Эффективная температура - температура, которую ощущает одетый по сезону человек в тени. Характеристика душности погоды. При расчете учитывается влияние влажности воздуха и скорости ветра на теплоощущения человека.
Tes - Эффективная температура на солнце - температура, которую ощущает человек, с поправкой на солнечный нагрев. Характеристика знойности погоды. Зависит от высоты солнца над горизонтом, облачности и скорости ветра. Ночью, в пасмурную погоду, а также при ветре 12 м/с и более поправка равна нулю.
P - Атмосферное давление - приведенное к уровню моря атмосферное давление.
Po - Атмосферное давление - измеренное на уровне метеостанции атмосферное давление.
Tmin - Минимальная температура - минимум температуры воздуха на высоте 2 м над землей.
Tmax - Максимальная температура - максимум температуры воздуха на высоте 2 м над землей.
R - Количество осадков - Количество выпавших осадков за 3 или 6 часов, мм.
SD - Снежный покров - Высота снежного покрова, см.